Regional Weather Roundup
Issued by NWS

Home | Current Version | Previous Version | Graphics & Text | Print | Product List | Glossary On
Versions: 1 2 3 4 5 6 7 8 9 10 11 12 13 14 15 16 17 18 19 20 21 22 23 24 25 26 27 28 29 30 31 32 33 34 35 36 37 38 39 40 41 42 43 44 45 46 47 48 49 50
000
ASUS43 KMKX 251311
RWRWI

WISCONSIN REGIONAL WEATHER ROUNDUP
NATIONAL WEATHER SERVICE MILWAUKEE/SULLIVAN WI
800 AM CDT WED MAY 25 2016

NOTE: "FAIR" INDICATES FEW OR NO CLOUDS BELOW 12,000 FEET WITH NO
SIGNIFICANT WEATHER AND/OR OBSTRUCTIONS TO VISIBILITY.

WIZ001-002-006>008-014>016-023>028-251400-
NORTHWEST WISCONSIN

CITY           SKY/WX    TMP DP  RH WIND       PRES   REMARKS
SUPERIOR ARPT  FOG       45  45 100 NE9       30.03R VSB 1
ASHLAND        FOG       51  51 100 NE7       30.03R VSB 1/4
HAYWARD        CLOUDY    58  55  90 E6        30.00R
SIREN          CLOUDY    57  57  97 NE6       29.96R FOG
CUMBERLAND     CLOUDY    63  57  82 SE7       29.96S
RICE LAKE      CLOUDY    65  58  79 SE5       29.98R
CHETEK         CLOUDY    63  59  88 SE6       29.97R
LADYSMITH      CLOUDY    62  59  88 E8        30.00S
EAU CLAIRE     CLOUDY    66  58  75 SE10      29.95S
MENOMONIE      CLOUDY    65  60  84 E6        29.95R
NEW RICHMOND   CLOUDY    65  56  74 SE6       29.94R
OSCEOLA        CLOUDY    65  59  82 E8        29.96R
$$

WIZ003>005-009-010-017-018-251400-
NORTH CENTRAL WISCONSIN

CITY           SKY/WX    TMP DP  RH WIND       PRES   REMARKS
MANITOWISH WTR NOT AVBL
ARBOR VITAE    CLOUDY    59  58  97 E6        30.04R FOG
WOODRUFF       CLOUDY    59  58  97 E6        30.04R FOG
RHINELANDER    CLOUDY    59  58  96 E12       30.06R
EAGLE RIVER      N/A     58  58 100 E8        30.05R
LAND O LAKES   CLOUDY    57  57 100 SE6       30.07R FOG
PHILLIPS       CLOUDY    57  57 100 E6        30.01R
TOMAHAWK       CLOUDY    55  54  97 E5        30.05R FOG
MEDFORD        MOSUNNY   62  60  94 E5        30.01R
MERRILL        CLOUDY    56  56 100 E6        30.04R FOG
$$

WIZ029-030-035-036-043>047-251400-
CENTRAL WISCONSIN

CITY           SKY/WX    TMP DP  RH WIND       PRES   REMARKS
WAUSAU         CLOUDY    61  57  87 E8        30.01R
MOSINEE        NOT AVBL
MARSHFIELD     MOSUNNY   64  58  80 E8        30.00R
STEVENS POINT  CLOUDY    59  56  91 E12       30.03R
WAUPACA        CLOUDY    60  60  97 NE5       30.03R FOG
WAUTOMA        MOSUNNY   66  58  75 NE12      30.01R
WISC RAPIDS    CLOUDY    66  57  72 E8        30.01R
CAMP DOUGLAS   NOT AVBL
$$

WIZ011>013-019>022-031-037>040-048>050-251400-
NORTHEAST WISCONSIN

CITY           SKY/WX    TMP DP  RH WIND       PRES   REMARKS
ANTIGO         FOG       57  57 100 E12       30.05R VSB 1/4
SHAWANO        CLOUDY    60  58  94 NE10      30.05R FOG
OCONTO         CLOUDY    58  58 100 E7        30.05R
STURGEON BAY   NOT AVBL
GREEN BAY      CLOUDY    57  56  96 NE14      30.05R FOG
MANITOWOC      CLOUDY    56  55  97 NE8G17    30.06R FOG
APPLETON       FOG       57  57 100 E10G18    30.03R VSB 1/4
CLINTONVILLE   CLOUDY    59  57  94 E8        30.04R FOG
OSHKOSH        MOSUNNY   62  58  86 NE10      30.02R FOG
$$

WIZ032>034-041-042-053>061-251400-
SOUTHWEST WISCONSIN

CITY           SKY/WX    TMP DP  RH WIND       PRES   REMARKS
LA CROSSE      PTSUNNY   67  58  72 E5        29.94R
SPARTA         CLOUDY    64  58  83 CALM      29.97R
VIROQUA        PTSUNNY   67  59  74 SE10      29.97R
BOSCOBEL       CLOUDY    65  61  87 NE3       29.96R
PRAIRIE DU CHI CLOUDY    64  60  90 CALM      29.95S
PLATTEVILLE    CLOUDY    70  65  84 S9        29.98R
$$

WIZ056-057-062-063-064-067-068-251400-
SOUTH CENTRAL WISCONSIN

CITY           SKY/WX    TMP DP  RH WIND       PRES   REMARKS
REEDSBURG      CLOUDY    65  61  85 E5        29.98R
BARABOO/DELLS  CLOUDY    67  59  75 E5        29.99R
LONE ROCK      CLOUDY    67  61  81 CALM      29.98R
MINERAL POINT  PTSUNNY   68  64  88 SE3       29.98S
MADISON        CLOUDY    69  62  78 SE5       29.99R
MIDDLETON      CLOUDY    70  62  76 E3        30.00R
WATERTOWN      MOSUNNY   71  65  81 S3        30.00R
MONROE         CLOUDY    70  63  78 S9        29.99R
JANESVILLE     SUNNY     72  64  78 S5        29.98R
$$

WIZ051-052-058>065-066-070>072-251400-
SOUTHEAST WISCONSIN

CITY           SKY/WX    TMP DP  RH WIND       PRES   REMARKS
MILWAUKEE      PTSUNNY   71  60  68 CALM      30.00R
WAUKESHA       SUNNY     68  63  83 S2        30.02R
MILWAUKEE/TIMM SUNNY     70  61  73 CALM      30.01R
RACINE         MOSUNNY   74  62  66 SW8       30.02R
BURLINGTON     MOSUNNY   69  62  77 S3        30.00R
KENOSHA        PTSUNNY   72  63  73 SW6       30.01R
FOND DU LAC    SUNNY     70  60  70 NE8       30.01R
SHEBOYGAN      SUNNY     59  53  80 NE16      30.03R
WEST BEND      SUNNY     68  61  77 NE8       30.01R
JUNEAU         SUNNY     72  62  71 SE7       30.01R
$$

LSZ147-162-251400-
LAKE SUPERIOR

STATION/POSITION TIME  TEMP    WIND        PRES    WAVE
                       AIR SEA DIR/SP/G            HT/PER
                 (UTC) (F)     (DEG/KT/KT) (MB)    (FT/S)
W MID LAKE BUOY  1250   40 38   50/ 12/ 14 1018.5R   1/ 3
DEVILS ISLAND    1300   44      50/ 16/ 19 1018.1R
SAXON HARBOR     1200   47      60/  1/  3 1016.3
$$

LMZ867-665-643>646-251400-
LAKE MICHIGAN

STATION/POSITION TIME  TEMP    WIND        PRES    WAVE
                       AIR SEA DIR/SP/G            HT/PER
                 (UTC) (F)     (DEG/KT/KT) (MB)    (FT/S)
CHAMBERS ISLAND  1200   53      20/ 10/ 14 1017.3S
N MID LAKE BUOY  1250   47 44  360/  8/  8 1017.2R   1
NORTHPORT PIER   1200   51     360/  9/ 11 1016.9F
SISTER BAY       1135   51      30/  5/  8   N/A
ALGOMA LAKESHORE 1232           50/  5/ 10   N/A
KEWAUNEE LAKESHO 1200   50      20/  7/ 10 1016.0R
SHEBOYGAN LAKESH 1300   49     350/ 20/ 21 1017.4R
PORT WASHINGTON  1200   61      30/  5/  7 1016.6
S MID LAKE BUOY  1250   53 49  170/ 10/ 10 1016.2R   1
KENOSHA   LAKESH 1300   64     170/  9/ 10 1015.9R
$$

TC  - TEMPERATURE IN CELSIUS
VSB - VISIBILITY IN STATUTE MILES
WCI - WIND CHILL INDEX
HX  - HEAT INDEX





USA.gov is the U.S. government's official web portal to all federal, state and local government web resources and services.